Bethel Airport Bethel US
ICAO: PABE
IATA:
Category: Medium
Scheduled Services:

Elevation: 126 ft
TransAlt. 18000 ft.

Airport Communications:
ATIS:119.8
ANCHORAGE CNTR:125.2
CTAF/BETHEL WX:118.7
KENAI RDO:122.65
GND:121.7
TWEB:114.1
NG OPS:124.65
TWR:118.7

PABE Zoom In..

If you have problems with the map follow the link
https://www.worldairports.se/pages/airport.php?
ICAO=PABE

Runways:

(A) RW 01L length 6400 ft width 150 ft
---- / hdg 9

(B) RW 01R length 4000 ft width 75 ft
---- / hdg 10

(C) RW 12 length 1858 ft width 75 ft
---- / hdg 114

(D) RW 19L length 4000 ft width 75 ft
---- / hdg 190

(E) RW 19R length 6400 ft width 150 ft
ILS 111.50 / hdg 189

(F) RW 30 length 1858 ft width 75 ft
---- / hdg 294

Location; PABE
Day. 18 / Time. 20.53 Zulu
* Altimeter: 30.02
* Temperature: -15° c. -5°f.
* Wind from: 330° Speed 14 kn.
Dewpoint: -18° c.
Visibility: 10 Statute Miles.
Clouds: Clear (automated report).

PABE 182053Z 33014KT 10SM CLR M15/M18 A3002 RMK AO2 SLP170 T11501183 52007


Wind From 330°
Speed 14 kn.

 
 
jpsmedia.com for Web Design worldairports.se 2019   terms of use